Regional Weather Roundup
Issued by NWS Grand Forks, ND

Home | Current Version | Previous Version | Graphics & Text | Print | Product List | Glossary On
Versions: 1 2 3 4 5 6 7 8 9 10 11 12 13 14 15 16 17 18 19 20 21 22 23 24 25 26 27 28 29 30 31 32 33 34 35 36 37 38 39 40 41 42 43 44 45 46 47 48 49 50
000
ASUS43 KFGF 301910
RWRFGF
PRAIRIE TO PINES  WEATHER ROUNDUP
NATIONAL WEATHER SERVICE EASTERN NORTH DAKOTA/GRAND FORKS ND
100 PM CST FRI JAN 30 2015

 **SATELLITE DATA USED TO AUGMENT SKY COVER AT AUTOMATED STATIONS**
 *****  WEATHER ACROSS EASTERN NORTH DAKOTA  *****

CITY           SKY/WX    TMP DP  RH WIND       PRES   REMARKS
GRAND FORKS    PTSUNNY   25  16  68 S20       30.18F WCI  11
GRAND FRKS AFB SUNNY     27  17  64 S14       30.16F WCI  16
GRAND FRKS NWS   N/A     23 N/A N/A S14         N/A  WCI  11
DEVILS LAKE    SUNNY     30  21  69 W14       30.09F WCI  20
FARGO          MOSUNNY   26  17  68 S22G31    30.20F WCI  12
WAHPETON ARPT  CLOUDY    27  19  74 SE18      30.24F WCI  13
$$

 ***** WEATHER ACROSS CENTRAL AND WESTERN NORTH DAKOTA  *****

CITY           SKY/WX    TMP DP  RH WIND       PRES   REMARKS
BISMARCK       SUNNY     40  26  57 W10       30.16F
MINOT          MOSUNNY   37  27  67 NW18      30.13S
JAMESTOWN      SUNNY     36  23  59 W13       30.12F
MINOT AFB      MOSUNNY   35  33  92 NW17      30.12F WCI  24
GARRISON         N/A     38  29  70 NW15      30.13F
WILLISTON      SUNNY     39  27  62 N10       30.20F
DICKINSON      SUNNY     44  28  53 NW13      30.14F
HETTINGER      SUNNY     48  27  44 NW14      30.16F
$$

 *****  OTHER AIRPORT OBSERVATIONS IN OUR AREA  *****

CITY           SKY/WX    TMP DP  RH WIND       PRES   REMARKS
WALHALLA         N/A     19  19 100 SE9       30.13F WCI   9
GRAFTON AIRPOR NOT AVBL
VALLEY CITY AR FLURRIES  32  25  74 S18       30.14F WCI  20
CANDO          FAIR      28  21  74 W13       30.10F WCI  18
CAVALIER APRT  CLOUDY    19  16  86 S8        30.16F WCI   9
GWINNER        CLEAR     36  30  80 S13       30.20F
SHEYENNE NWR     N/A     31  21  65 S13       29.95  WCI  21
ROLLA          FAIR      27  25  93 NW14      30.08F WCI  15
 ***** THE ABOVE OBSERVATIONS ARE NON NWS ARE NOT QUALITY
       CONTROLLED AND MAY MIS-REPORT RAIN FOR SNOW...
$$

  *****  WEATHER ACROSS NORTHERN MINNESOTA  *****

CITY           SKY/WX    TMP DP  RH WIND       PRES   REMARKS
FLAG ISLAND    LGT SNOW   7   3  85 S17       30.22F WCI -12
WARROAD        PTSUNNY   12   9  85 S6        30.21F WCI   3
ROSEAU         PTSUNNY   16   9  73 S10       30.19F WCI   3
HALLOCK        CLOUDY    18  14  86 S17       30.19F WCI   2
THF RVR FALLS  CLOUDY    19  16  86 S12       30.19F WCI   7
BAUDETTE       LGT SNOW  10   5  80 S7        30.22F WCI  -1
WASKISH        CLOUDY    14   5  67 SE7       30.25F WCI   4
CROOKSTON      CLOUDY    21  18  86 S16G22    30.21F WCI   7
STEPHEN NDAWN    N/A     19  16  86 S14         N/A  WCI   6
GREENBUSH NDAW   N/A     18  14  86 S10         N/A  WCI   6
$$
  *****  WEATHER ACROSS CENTRAL AND WEST MINNESOTA  *****

CITY           SKY/WX    TMP DP  RH WIND       PRES   REMARKS
FOSSTON        PTSUNNY   19  14  79 S16       30.20F WCI   5
BEMIDJI        PTSUNNY   15   9  75 SE9       30.24F WCI   3
PARK RAPIDS    CLOUDY    19  11  70 S13       30.24F WCI   6
ELBOW LAKE     CLOUDY    22  18  85 SE18G24   30.26F WCI   7
WADENA         PTSUNNY   19  12  73 S14       30.27F WCI   6
DETROIT LAKES  MOSUNNY   19  18  93 S14       30.23F WCI   6
MOORHEAD       MOSUNNY   25  19  80 S23       30.22F WCI  10
FERGUS FALLS   PTSUNNY   21  16  79 SE18      30.29F WCI   6
MORRIS MN      PTSUNNY   23  18  80 SE21      30.28F WCI   8
STAPLES        PTSUNNY   19  10  68 S15       30.29F WCI   5
$$
  *****  WEATHER ELSEWHERE ACROSS MINNESOTA  *****

CITY           SKY/WX    TMP DP  RH WIND       PRES   REMARKS
DULUTH         CLOUDY    11   1  64 S9        30.33F WCI  -2
INTRNTL FALLS  LGT SNOW   7   2  80 SE7       30.27F WCI  -5
ELY            LGT SNOW   7   0  72 SE6       30.32F WCI  -3
CLOQUET        CLOUDY    12   3  67 SW7       30.34F WCI   2
WHEATON        SUNNY     27  21  80 SE22      30.26F WCI  12
BRAINERD       PTSUNNY   19   9  65 S10       30.32F WCI   7
HIBBING        CLOUDY    10   1  67 S3        30.32F
ALEXANDRIA     CLOUDY    18  14  84 S15       30.30F WCI   4
SAINT CLOUD    SUNNY     21  10  62 S15       30.37F WCI   8
MINNEAPOLIS    PTSUNNY   22  10  60 SW8       30.44F WCI  12
$$

  *****  WEATHER ACROSS SOUTH DAKOTA  *****

CITY           SKY/WX    TMP DP  RH WIND       PRES   REMARKS
SIOUX FALLS    MOSUNNY   33  24  69 S16       30.31F WCI  23
BROOKINGS      NOT AVBL
WATERTOWN      SUNNY     33  25  72 S20G25    30.21F WCI  21
HURON          SUNNY     37  27  67 S15G21    30.21F
SISSETON         N/A     34  26  72 S17       30.20F WCI  23
ABERDEEN       SUNNY     34  25  69 S18       30.20F WCI  23
MITCHELL       SUNNY     38  28  67 S15       30.25F
PIERRE         SUNNY     42  24  49 SW6       30.16F
MOBRIDGE       SUNNY     37  26  64 S6        30.14F
RAPID CITY     MOSUNNY   51  24  34 N12       30.15F
$$

  *****  SOME WEATHER IN NEARBY STATES *****

CITY           SKY/WX    TMP DP  RH WIND       PRES   REMARKS
GLASGOW MT     SUNNY     34  28  79 NW7       30.23F
GREAT FALLS MT SUNNY     45  18  34 SW12      30.19F
CHEYENNE WY    CLOUDY    46  25  43 N9        30.14F
SCOTTSBLUFF NE CLOUDY    39  27  62 W6        30.16F
OMAHA NE       CLOUDY    32  20  61 S10       30.46F WCI  24
DES MOINES IA  PTSUNNY   30  14  51 S7        30.47F WCI  23
DAVENPORT IA   SUNNY     27  13  55 CALM      30.50F
CHICAGO IL     PTSUNNY   28   8  43 W5        30.48F WCI  23
EAU CLAIRE WI  PTSUNNY   15   3  59 W5        30.46F WCI   8
LA CROSSE WI   MOSUNNY   22   7  52 S8        30.49F WCI  12
$$

  *****  SOME NATIONAL WEATHER *****

CITY           SKY/WX    TMP DP  RH WIND       PRES   REMARKS
LA GUARDIA NY  CLOUDY    36  22  56 NW18G30   29.82S
RALEIGH NC     MOSUNNY   47  16  29 NW14G28   30.09S
ATLANTA GA     MOSUNNY   49  23  36 NW18      30.27F
NEW ORLEANS LA CLOUDY    54  38  54 N12       30.35F
OKLAHOMA CITY  CLOUDY    47  23  38 E8        30.44F
ALBUQUERQUE NM FLURRIES  35  31  85 NE6       30.23F
SALT LAKE CITY CLOUDY    42  35  76 CALM      30.09F
LOS ANGELES CA CLOUDY    65  51  60 CALM      29.92F
BOISE ID       MOSUNNY   33  33 100 VRB3      30.28F
SEATTLE WA     FOG       41  38  89 CALM      30.31F VSB 1
$$

*** WEATHER ACROSS MANITOBA...SASKATCHEWAN AND ONTARIO ***
                ***ONTARIO***

CITY           SKY/WX    TMP DP  RH WIND       PRES   REMARKS
GERALDTON      MOSUNNY   -2 -11  65 SW7       30.31F WCI -16
THUNDER BAY    PTSUNNY    9  -4  56 W7        30.40F WCI  -3
SIOUX LOOKOUT  PTSUNNY    3  -9  55 SW7       30.26F WCI  -9
TORONTO        MOSUNNY   12   1  62 NW21G30   30.25R WCI  -6
BIG TROUT LK   PTSUNNY   -2 -11  65 W8        30.14F WCI -17
PICKLE LAKE    PTSUNNY    0 -11  60 SW9       30.22F WCI -16
DRYDEN         LGT SNOW   3  -2  78 S10       30.24F WCI -12
KENORA         LGT SNOW   5   0  78 S14       30.19F WCI -12
$$
                *** MANITOBA***

CITY           SKY/WX    TMP DP  RH WIND       PRES   REMARKS
BRANDON        CLOUDY    18  14  86 W14       30.12F WCI   4
DAUPHIN        CLOUDY    19  14  79 W14       30.14F WCI   6
ISLAND LAKE    LGT SNOW   1  -6  71 W7        30.14F WCI -11
PILOT MOUND      N/A     23  18  80 W7          N/A  WCI  15
THE PAS        MOSUNNY    5  -2  72 NW9       30.25S WCI  -9
THOMPSON       MOSUNNY    0 -11  60 NW13      30.16S WCI -18
WINNIPEG       CLOUDY    14   9  79 S16G25    30.17F WCI  -2
LYNN LAKE      SUNNY    -11 -18  70 NW14G22   30.23S WCI -33
CHURCHILL      CRYSTALS -18 -27  63 NW26G36   30.12R BLWGSNOWWCI -49
GILLAM         MOSUNNY   -9 -18  64 NW9       30.12F WCI -27
$$
                ***SASKATCHEWAN***

CITY           SKY/WX    TMP DP  RH WIND       PRES   REMARKS
ESTEVAN        CLOUDY    25  23  93 W15       30.18S FOG     WCI  12
KINDERSLEY     CLOUDY    21  19  93 NE3       30.25F FOG
LLOYDMINSTER   CLOUDY    19  18  93 NE6       30.27R FOG     WCI  11
PRINCE ALBERT  FLURRIES  16  10  79 N8        30.29R WCI   5
REGINA         PTSUNNY   21  18  86 NW20      30.22R WCI   6
YORKTON        CLOUDY    19  14  79 NW13      30.17S WCI   7
N. BATTLEFORD  CLOUDY    19  16  86 N8        30.30S WCI   9
LA RONGE       MOSUNNY    5  -2  72 W8        30.36R WCI  -8
SASKATOON      CLOUDY    19  18  93 N10       30.29R WCI   8
SWIFT CURRENT  FOG       25  25 100 NW8       30.22R VSB 1/8 WCI  16
$$
NOTE: THESE ARE AUTOMATED STATIONS WITH LIMITED QUALITY CONTROL
      "FAIR" INDICATES FEW OR NO CLOUDS BELOW 12,000 FEET WITH NO
      SIGNIFICANT WEATHER AND/OR OBSTRUCTIONS TO VISIBILITY.
      SKY/WX - SKY CONDITION AND SIGNIFICANT WEATHER.
      TMP - AIR TEMPERATURE.    DP   - DEWPOINT TEMPERATURE.
      RH  - RELATIVE HUMIDITY.  PRES - PRESSURE.
      HX  - HEAT INDEX.         WCI  - WIND CHILL INDEX.
$


USA.gov is the U.S. government's official web portal to all federal, state and local government web resources and services.